Regional Weather Roundup
Issued by NWS

Home | Current Version | Previous Version | Text Only | Print | Product List | Glossary Off
Versions: 1 2 3 4 5 6 7 8 9 10 11 12 13 14 15 16 17 18 19 20 21 22 23 24 25 26 27 28 29 30 31 32 33 34 35 36 37 38 39 40 41 42 43 44 45 46 47 48 49 50

000
ASUS45 KCYS 252010
RWRWY

WYOMING REGIONAL WEATHER ROUNDUP
NATIONAL WEATHER SERVICE CHEYENNE WY
200 PM MDT THU MAY 25 2017

NOTE:  "FAIR" INDICATES FEW OR NO CLOUDS BELOW 12,000 FEET
WITH NO SIGNIFICANT WEATHER AND/OR OBSTRUCTIONS TO VISIBILITY.

WYZ001-252100-
YELLOWSTONE NATIONAL PARK

CITY           SKY/WX    TMP DP  RH WIND       PRES   REMARKS
LK YELLOWSTONE   N/A     40  22  48 N5        29.85R
W YELLOWSTONE  NOT AVBL

$$
WYZ002>013-054>058-071-098>099-252100-
NORTHERN WYOMING

CITY           SKY/WX    TMP DP  RH WIND       PRES   REMARKS
JACKSON        MOSUNNY   54  16  22 SE12G23   29.77S
CODY           CLOUDY    51  31  46 N7        29.75R
GREYBULL       FAIR      60  32  34 N26G36    29.71R
WORLAND        NOT AVBL
SHERIDAN       CLOUDY    54  38  54 NW22G36   29.69R
BUFFALO        FAIR      52  35  52 N29G41    29.69R
GILLETTE       FAIR      60  39  45 NW18G25   29.64R
HULETT         MOCLDY    61  32  33 W13G20    29.62R
NEWCASTLE      FAIR      61  28  29 NW13G24   29.63R

$$
WYZ014>020-022>026-101>103-252100-
CENTRAL WYOMING

CITY           SKY/WX    TMP DP  RH WIND       PRES   REMARKS
BIG PINEY      FAIR      54  18  24 MISG      29.77R
PINEDALE       FAIR      54  18  24 NW9       29.77R
DUBOIS         MOCLDY    52  14  22 N15G21    29.75R
LANDER         FAIR      62  20  19 CALM      29.67R
RIVERTON       FAIR      63  15  15 N13G18    29.67S
CASPER         FAIR      63  30  28 W17G31    29.67R
DOUGLAS        FAIR      64  36  35 NW15G23   29.65R

$$
WYZ021-027>030-104>119-252100-
SOUTHERN WYOMING

CITY           SKY/WX    TMP DP  RH WIND       PRES   REMARKS
EVANSTON       PTSUNNY   53  31  42 W18G28    29.79S
KEMMERER         N/A     52  27  37 W13G24    29.80R
FORT BRIDGER   MOCLDY    58  24  26 W14G24    29.80S
ROCK SPRINGS   FAIR      59  27  29 W15G24    29.75S
DIXON            N/A     60  41  49 SW3       29.77R
RAWLINS        FAIR      60  34  37 W22G30    29.73F
SARATOGA       CLOUDY    54  37  54 N15       29.76F
LARAMIE        CLOUDY    58  38  47 NW10G23   29.69F
CHEYENNE       CLOUDY    59  41  51 NW18G24   29.69R
TORRINGTON     FAIR      69  40  34 NW25G32   29.58R
PINE BLUFFS    FAIR      66  39  37 N10       29.63S

$$



USA.gov is the U.S. government's official web portal to all federal, state and local government web resources and services.